Timeline UpdatesTrip UpdatesNews PostsPvt PostsTravel TipsAdmin PostsConv PostsFollowed PostsChat RequestsBlog PostsPNR Posts

Disclaimer
Search
 
 
Tue Sep 2, 2014 09:54:22 ISTHomeTrainsΣChainsAtlasPNRForumGalleryNewsFAQTripsMembersLoginFeedback
No Recent News for this Train
Other Trains in the News **new
Latest...
.
Fri Feb 28, 2014 (07:32PM)
⇐ Return Journey: Train# 19216

19215/Saurashtra Express

Time-Table HAS CHANGED.
Yesterday (8:18PM)
Change Departure Station:
Change Arrival Station:
Post a Train Travel TipPost a Train Travel Tip **new
Post a Comment/Question/Picture/VideoPost a Comment/Question/Picture/Video
Pantry/Catering
✕ NO Pantry Car
✓ Catering Avbl
RSA - Rake Sharing
Rake/Coach Composition
ENG - SLR - GEN - GEN - GEN - FC1 - B1 - S4 - S3 - S2 - S1 - LD - GEN - RMS - GEN - GEN - GEN - SLR - Milk van
Loco
BCT-ADI: BRC WAP-4/ ADI-PBR: VTA WDM-3A
News    PNR    Forum    Time-Table    Availability    Fare Chart    Map    Arr/Dep History    Trips    Gallery    ΣChains    X/O    Timeline    
Travel Time: 11h 40m    23 halts    Distance: 508 km    Avg Speed: 43 km/hr
Type: Mail/Express
Zone: WR/Western
Departs @ 18:10
Platform# ???
SMTWTFS
Nadiad Junction/ND 
Arrives @ 05:50 +1 night
Platform# 1
SMTWTFS
Porbandar/PBR 

23 halts. 75 intermediate Stations between Nadiad Junction and Porbandar

Show ALL intermediate Stations  Show Old Time-Table

#CodeStation NameX/OArrivesAvgDepartsAvgHaltPFDay#KmSpeedElevZoneAddress
1BCTMumbai Central (9)  -08:20-31-447.1363mWRMumbai 400008, Maharashtra
2DDRMumbai Dadar Western (6)  08:30-08:32-2m31-441.1516mWRMumbai, Maharashtra
3BVIMumbai Borivali (8)X  09:00-09:02-2m41-417.44519mWRMumbai - 400092, Maharashtra
4BSRVasai Road (7)  09:25-09:27-2m41-400.0467mWRVasai 401202, Maharashtra
5VRVirar (8)  09:38-09:40-2m31-391.6656mWRDist. Palghar, Maharashtra
6SAHSaphale (2)X  09:55-09:57-2m11-375.3748mWRDist. Palghar, Maharashtra
7PLGPalghar (3)X  10:09-10:11-2m--1-360.46819mWRPalghar, Maharashtra
8BORBoisar (3)X  10:21-10:23-2m21-349.26517mWRBoisar Tel.no-02525-266626, Maharashtra
9DRDDahanu Road (5)X  10:43-10:45-2m--1-327.56712mWRDahanu, Maharashtra
10GVDGholvad (4)X  10:55-10:57-2m--1-316.36914mWRGholvad, Maharashtra
11UBRUmbargam Road (3)  11:08 11:05-11:10 11:07-2m11-307.14030mWRUmbergaon, Gujarat
12SJNSanjan (3)X  11:19 11:15-11:21 11:17-2m--1-301.86922mWRSanjan, Gujarat
13BLDBhilad (3)X11:34 11:27-11:36 11:29-2m--1-290.26233mWRBhilad, Gujarat
14VAPIVapi (3)X  11:40-11:42-2m11-278.94827mWRVapi, Gujarat
15UVDUdvada (3)X  11:54-11:56-2m--1-269.36018mWRUdvada, Gujarat
16PADPardi (3)  12:02-12:04-2m--1-263.43619mWRValsad, Gujarat
17BLValsad (3)X  12:23 12:22-12:25 12:24-2m11-252.76015mWRValsad, Gujarat
18BIMBilimora Junction (4)  12:45 12:42-12:47 12:44-2m11-234.84811mWRBilimora, Gujarat
19AMLAmalsad (3)  12:53 12:51-12:55 12:52-2 1m--1-229.27212mWRAmalsad, Gujarat
20NVSNavsari (3)X  13:08 13:05-13:10 13:07-2m11-213.64614mWRNavsari, Gujarat
21MRLMaroli (3)  13:21 13:18-13:23 13:20-2m11-205.16415mWRMaroli, Gujarat
22UDNUdhna Junction (3)X  13:40 13:36-13:42 13:38-2m11-188.0816mWRUdhna 394210, Gujarat
23STSurat (4)X  14:10-14:15-5m11-184.05919mWRSurat 395001, Gujarat
24SYNSayan (3)  14:29-14:31-2m--1-170.38521mWRSayan Satellite town, Gujarat
25KIMKim (2)  14:38-14:40-2m--1-160.45818mWRNH 8, Gujarat
26KSBKosamba Junction (3)X  14:48-14:50-2m--1-152.67130mWRKosamba, Gujarat
27PAOPanoli (3)  14:57-14:59-2m--1-144.46929mWRPanoli, Gujarat
28AKVAnkleshwar Junction (4)X  15:08-15:10-2m11-134.04319mWRAnkleshwar, Gujarat
29BHBharuch Junction (5)  15:23-15:25-2m31-124.76619mWRBharuch, Gujarat
30NIUNabipur (3)X  15:36-15:38-2m--1-112.68024mWRNabipur, Gujarat
31PLJPalej (4)  15:48-15:50-2m--1-99.38329mWRPalej, Gujarat
32MYGMiyagam Karjan (2)  16:01-16:03-2m21-84.07029mWRKarjan, Gujarat
33ITAItola (4)  16:13-16:15-2m--1-72.44827mWRNational Highway 8 Vadodara, Gujarat
34VSVishvamitri (4)XO  16:34-16:36-2m--1-57.2930mWRVadodara, Gujarat
35BRCVadodara Junction (7)X  16:55-17:00-5m41-54.25036mWRVadodara 390005, Gujarat
36VDAVasad Junction (3)X  17:24-17:26-2m21-34.05240mWRVasad, Gujarat
37ANNDAnand Junction (6)  17:44-17:46-2m--1-18.45644mWRAnand, Gujarat
38KBRVKanjari Boriyavi Junction (4)X  17:54-17:56-2m--1-11.05539mWRKanjari, Gujarat
39ND»Nadiad Junction (4)»O  18:08-18:10-2m--10.05037mWRNadiad, Gujarat
40MHDMahemdavad Kheda Road (4)XO  18:31-18:33-2m3117.65737mWRMahemdavad, Gujarat
41BJDBarejadi Nandej (3)  18:45-18:47-2m--128.93842mWRBareja-Barejadi Rd, Gujarat
42MANManinagar (2)X  19:21 19:08-19:23 19:10-2m1142.4650mWRAhmadabad, Gujarat
43ADIAhmedabad Junction (12)XO19:40-20:00-20m6145.61951mWRAhmedabad, Gujarat
44SBTSabarmati Junction (3) new halt!!  20:17-20:19-2m--151.03852mWRAhmedabad, Gujarat
45CLDYChandlodiya  20:28-20:30-2m--156.66859mWRAhmedabad, Gujarat
46ABDAmbli RoadX  20:35-20:37-2m--162.37050mWRAhmedabad, Gujarat
47SAUSanand  20:47-20:49-2m--173.95840mWRSanand, Gujarat
48CEChharodi  21:00-21:02-2m--184.67029mWRSH 17, Gujarat
49JKAJakhvadaX  21:14-21:16-2m--198.63031mWRState Highway 17, Gujarat
50VGViramgam Junction (5)X  21:41-21:43-2m11110.95129mWRViramgam, Gujarat
51SUNRSurendranagar Junction (4)  22:58 23:00-23:00 23:05-2 5m11176.57272mWRSurendra Nagar, Gujarat
52THANThan Junction (3)  23:45-23:47-2m11224.257138mWRThangadh, Gujarat
53WKRWankaner Junction (4)X  00:13 00:15-00:15 00:20-2 5m--2250.84387mWRWankaner, Gujarat
54RJTRajkot Junction (5)X  01:18-01:24-6m32292.565128mWRRajkot, Gujarat
55HAPAHapa (3)X  02:32 02:34-02:34 02:36-2m--2368.44316mWRJamnagar, Gujarat
56JAMJamnagar (2)X  02:46 02:48-02:48 02:53-2 5m--2377.15214mWRJamnagar, Gujarat
57LPJLalpur Jam  03:44-03:46-2m--2421.16076mWRLalpur, Gujarat
58GOPGop Jam  04:03-04:05-2m--2438.265126mWRState Highway 27, Gujarat
59BNVDBhanvad  04:22-04:24-2m--2456.65555mWRBhanvad, Gujarat
60WSJWansjaliya  04:44-04:45-1m--2474.88455mWRTarsai - Vansjaliya, Gujarat
61SKRSakhpur  04:50-04:52-2m--2481.83155mWRto railway station, Gujarat
62RWORanavavX  05:18-05:20-2m--2495.12737mWRRanavav, Gujarat
63PBR•Porbandar•  05:50--12508.4-7mWRPorbandar, Gujarat
Scroll to Top
Scroll to Bottom